Location: Niedergestelen
(46.3129°N, 7.7822°E)
Time: 06:34:52
(UTC+00:00)

H-2A R/B - Pass Details

Date: 01 December 2020
Orbit: 578 x 654 km, 98.5° (Epoch: 18 January)

Event Time Altitude Azimuth Distance (km) Brightness Sun altitude
Exits shadow 17:51:54 - 1° (N) 2,852 5.4 -21.4°
Rises 17:51:56 0° 1° (N) 2,845 5.4 -21.4°
Reaches altitude 10° 17:54:30 10° 345° (NNW) 1,950 4.7 -21.8°
Maximum altitude 17:57:37 21° 297° (WNW) 1,397 4.5 -22.3°
Drops below altitude 10° 18:00:47 10° 249° (WSW) 1,973 5.7 -22.9°
Sets 18:03:25 0° 233° (SW) 2,889 6.5 -23.3°
